STARLINK-31879, 59937

Orbit data source: Space-Track

STARLINK-31879, 59937 is a payload satellite owned by SpaceX/Seattle (US) in LEO that was launched on Sat, 01 Jun 2024 UTC via an FALCON 9 launch vehicle from the Air Force Eastern Test Range (AFETR). Payload-class satellites include a variety of spacecraft equipped with specific instruments for various scientific and technological missions. These include communications satellites like Starlink; space stations such as the ISS; scientific satellites like the Hubble; Earth observation satellites from companies like Planet Labs, Umbra, and HawkEye 360; GPS; miniature CubeSats for education and research; and military/defense satellites.

Loading next visibility...
Identifier
59937, 2024-106R
Orbit
LEO
Country
Flag of USUS
Related business
Manufacturer
SpaceX/Seattle
Mission
Operational spacecraft
Bus & Motor
STARLINK V2M, Unknown motor
Mass
730 kg wet, ~700 kg dry
Launch date (UTC)
2024-06-01 (1 year ago)
Launch vehicle
FALCON 9
Launch site
Air Force Eastern Test Range (AFETR)
Object type
Payload
Rocket body
Debris
Shape & HBR
Unknown
Radar Cross Section
Large (>1 m²)

Expand to show TLE details & history
Last TLE update: 1 day ago

TLE from 1 day ago
0 STARLINK-31879
1 59937U 24106R   25259.99670807 -.00002601  00000-0 -85022-4 0  9997
2 59937  43.0026 233.8775 0001136 267.2195  92.8527 15.27577137 74007
Epoch: 2025-09-16T23:55Z
TLE epoch observation values (Epoch: 2025-09-16T23:55:15.577Z)
Latitude
0.00002°
Longitude
-121.11638°
Altitude
482.872 km
Speed
7.626 km/s
True Right ascension
15h 35m 30s
True Declination
0° 00' 00"
Sunlit
Object was in daylight at epoch
Visualization orbit readout
Latitude
Unknown
Longitude
Unknown
Altitude
Unknown
Speed
Unknown
Apparent Right ascension
Unknown
Apparent Declination
Unknown
Sunlit
N/A
Visualization observer readout
Local Sidereal Time
19:12:46
Azimuth
Unknown
Elevation
Unknown
Doppler factor
Unknown
Orbital elements
Apogee altitude
485.782 km
Perigee altitude
484.223 km
Semi-major axis
6,863.139 km
Eccentricity
0.00011
Inclination
43.0026°
RAAN
233.8775°
Arg. of periapsis
267.2195°
True anomaly
92.8657°
Mean anomaly
92.8527°
Eccentric anomaly
92.8592°
Mean motion
3.81732 °/min
Orbital period
94.31 mins
BSTAR
-0.000085022
Loading maneuver chart data...
Computing Atmospheric mass density...
Loading historical data...
Loading historical data...
Loading historical data...
Loading historical data...
Loading historical data...
Loading historical data...
Loading historical data...

Documentation

Showing up to 5 results
|